This demonstration page uses our WeatherBlox Daily Observations layout. Learn more.

Left ArrowRight Arrow

Hourly Observations for February 19, 2016

Temp ( °F °C ) Dew Point ( °F °C ) Humidity (%) Winds ( mph kmh ) Pressure ( in mb ) Visibility ( mi km ) Precip ( " mm )
12:59 am 00:59 Clear 33 0.6 17 -8.3 52 52 NNE 10 17 30.56 1035 10 16 0.00 0.00
1:59 am 01:59 Clear 32 0 15 -9.4 50 50 NNE 10 17 30.56 1035 10 16 0.00 0.00
2:59 am 02:59 Clear 32 0 14 -10 47 47 NE 12 19 30.55 1035 10 16 0.00 0.00
3:59 am 03:59 Clear 32 0 14 -10 47 47 NE 7 11 30.55 1035 10 16 0.00 0.00
4:59 am 04:59 Clear 32 0 14 -10 47 47 NE 8 13 30.55 1035 10 16 0.00 0.00
5:59 am 05:59 Clear 31 -0.6 13 -10.6 47 47 NE 6 9 30.58 1036 10 16 0.00 0.00
6:59 am 06:59 Mostly Sunny 31 -0.6 15 -9.4 52 52 NE 7 11 30.58 1036 10 16 0.00 0.00
7:59 am 07:59 Partly Cloudy 35 1.7 20 -6.7 54 54 NE 6 9 30.59 1036 10 16 0.00 0.00
8:59 am 08:59 Mostly Cloudy 36 2.2 21 -6.1 55 55 ENE 6 9 30.60 1036 10 16 0.00 0.00
9:59 am 09:59 Mostly Cloudy 38 3.3 19 -7.2 46 46 ESE 5 7 30.60 1036 10 16 0.00 0.00
10:59 am 10:59 Mostly Cloudy 40 4.4 21 -6.1 47 47 NE 3 6 30.60 1036 10 16 0.00 0.00
11:59 am 11:59 Mostly Cloudy 42 5.6 25 -3.9 51 51 NE 7 11 30.58 1035 10 16 0.00 0.00
12:59 pm 12:59 Mostly Cloudy 43 6.1 27 -2.8 53 53 NNE 7 11 30.55 1035 10 16 0.00 0.00
1:59 pm 13:59 Partly Cloudy 43 6.1 28 -2.2 56 56 ENE 9 15 30.49 1033 10 16 0.00 0.00
2:59 pm 14:59 Mostly Cloudy 45 7.2 31 -0.6 58 58 E 10 17 30.44 1031 10 16 0.00 0.00
3:59 pm 15:59 Partly Cloudy 49 9.4 24 -4.4 38 38 VRB 6 9 30.39 1029 10 16 0.00 0.00
4:59 pm 16:59 Partly Cloudy 47 8.3 26 -3.3 44 44 SSE 9 15 30.37 1029 10 16 0.00 0.00
5:59 pm 17:59 Partly Cloudy 44 6.7 27 -2.8 51 51 SSE 14 22 30.35 1028 10 16 0.00 0.00
6:59 pm 18:59 Partly Cloudy 42 5.6 29 -1.7 60 60 SSE 8 13 30.33 1027 10 16 0.00 0.00
7:59 pm 19:59 Mostly Cloudy 41 5 28 -2.2 60 60 SSE 8 13 30.32 1027 10 16 0.00 0.00
8:59 pm 20:59 Mostly Cloudy 41 5 31 -0.6 67 67 S 8 13 30.31 1026 10 16 0.00 0.00
9:59 pm 21:59 Mostly Cloudy 41 5 31 -0.6 67 67 S 7 11 30.31 1026 10 16 0.00 0.00
10:59 pm 22:59 Mostly Cloudy 41 5 31 -0.6 67 67 S 8 13 30.31 1026 10 16 0.00 0.00
11:59 pm 23:59 Mostly Cloudy 41 5 29 -1.7 62 62 SSW 13 20 30.28 1025 10 16 0.00 0.00

Powered by AerisWeather